Weather History for Rhinelander, WI

Change the Weather History Date:

Thursday, October 23, 2014

  Actual Average Record
Temperature  
Mean Temperature 44 °F 41 °F  
Max Temperature 46 °F 51 °F 77 °F (1963)
Min Temperature 41 °F 32 °F 11 °F (1936)
Degree Days  
Heating Degree Days 21 24  
Month to date heating degree days 499 459  
Since 1 July heating degree days 1013 891  
Cooling Degree Days 0 0  
Month to date cooling degree days 0 0  
Year to date cooling degree days 148 259  
Moisture  
Dew Point 41 °F    
Average Humidity 85    
Maximum Humidity 100    
Minimum Humidity 70    
Precipitation  
Precipitation 0.15 in 0.08 in 1.09 in (1996)
Month to date precipitation 3.04 2.45  
Year to date precipitation 35.88 27.53  
Snow  
Snow 0.00 in - 2.00 in (1979)
Month to date snowfall T  
Since 1 July snowfall T  
Since 1 September snowfall T  
Snow Depth 0.00 in    
Sea Level Pressure  
Sea Level Pressure 30.07 in    
Wind  
Wind Speed 6 mph (SSW)    
Max Wind Speed 13 mph    
Max Gust Speed 17 mph    
Visibility 6 miles    
Events Rain    
T = Trace of Precipitation, MM = Missing Value Source: NWS Daily Summary

Daily Weather History Graph

Daily Weather History Graph

Search for Another Location

Airport:

Trip Planner

Search our weather history database for the weather conditions in past years. The results will help you decide how hot, cold, wet, or windy it might be!

Date:

Astronomy

Oct. 23, 2014 Rise Set
Actual Time 7:25 AM CDT 5:58 PM CDT
Civil Twilight 6:54 AM CDT 6:28 PM CDT
Nautical Twilight 6:20 AM CDT 7:03 PM CDT
Astronomical Twilight 5:45 AM CDT 7:37 PM CDT
Moon 7:03 AM CDT (10/23) 6:00 PM CDT (10/23)
Length of Visible Light 11h 34m
Length of Day
10h 33m
Waning Crescent, 0% of the Moon is Illuminated
Oct 23
Waning Crescent
Oct 23
New
Oct 30
First Quarter
Nov 6
Full
Nov 14
Last Quarter

Hourly Weather History & Observations

Time (CDT) Temp. Windchill Dew Point Humidity Pressure Visibility Wind Dir Wind Speed Gust Speed Precip Events Conditions
12:53 AM 42.1 °F 38.4 °F 36.0 °F 79% 30.18 in 10.0 mi SSE 5.8 mph - N/A   Mostly Cloudy
1:53 AM 43.0 °F 38.8 °F 36.0 °F 76% 30.17 in 10.0 mi South 6.9 mph - N/A   Overcast
2:53 AM 45.0 °F 39.7 °F 35.1 °F 68% 30.16 in 10.0 mi SSW 10.4 mph 16.1 mph N/A   Mostly Cloudy
3:53 AM 45.0 °F 40.1 °F 35.1 °F 68% 30.13 in 10.0 mi South 9.2 mph - N/A   Overcast
4:10 AM 46.0 °F 41.9 °F 35.1 °F 66% 30.10 in 10.0 mi SSW 8.1 mph - N/A   Overcast
4:37 AM 45.0 °F 39.7 °F 35.1 °F 68% 30.11 in 10.0 mi South 10.4 mph - N/A   Overcast
4:53 AM 45.0 °F 40.1 °F 35.1 °F 68% 30.13 in 10.0 mi South 9.2 mph - N/A   Overcast
5:53 AM 44.1 °F 39.5 °F 36.0 °F 73% 30.12 in 9.0 mi South 8.1 mph - 0.00 in Rain Light Rain
6:53 AM 43.0 °F 38.8 °F 39.9 °F 89% 30.12 in 8.0 mi South 6.9 mph - 0.01 in Rain Light Rain
7:53 AM 42.1 °F 38.4 °F 39.9 °F 92% 30.11 in 7.0 mi South 5.8 mph - 0.01 in   Overcast
8:32 AM 42.1 °F 37.1 °F 39.9 °F 92% 30.06 in 7.0 mi South 8.1 mph - N/A   Overcast
8:53 AM 43.0 °F 40.3 °F 39.9 °F 89% 30.10 in 8.0 mi SSE 4.6 mph - N/A   Overcast
9:53 AM 44.1 °F 40.1 °F 39.9 °F 85% 30.10 in 8.0 mi South 6.9 mph - 0.00 in Rain Light Rain
10:08 AM 43.0 °F 38.8 °F 39.9 °F 89% 30.06 in 9.0 mi South 6.9 mph - 0.00 in Rain Light Rain
10:53 AM 44.1 °F 40.8 °F 41.0 °F 89% 30.09 in 7.0 mi South 5.8 mph - 0.01 in Rain Light Rain
11:27 AM 43.0 °F 40.3 °F 41.0 °F 93% 30.05 in 2.0 mi South 4.6 mph - 0.02 in Rain Light Rain
11:39 AM 43.0 °F 38.8 °F 41.0 °F 93% 30.06 in 2.5 mi South 6.9 mph - 0.04 in Rain Light Rain
11:46 AM 43.0 °F 38.8 °F 41.0 °F 93% 30.06 in 4.0 mi South 6.9 mph - 0.04 in Rain Light Rain
11:53 AM 43.0 °F 38.2 °F 41.0 °F 93% 30.09 in 4.0 mi South 8.1 mph - 0.05 in Rain Light Rain
12:10 PM 43.0 °F 37.7 °F 41.0 °F 93% 30.05 in 2.5 mi South 9.2 mph - 0.01 in Rain Light Rain
12:24 PM 43.0 °F 38.8 °F 41.0 °F 93% 30.05 in 4.0 mi South 6.9 mph - 0.01 in Rain Light Rain
12:53 PM 43.0 °F 39.5 °F 41.0 °F 93% 30.08 in 4.0 mi SSW 5.8 mph - 0.03 in Rain Light Rain
1:53 PM 44.1 °F 40.8 °F 42.1 °F 93% 30.05 in 6.0 mi SSW 5.8 mph - 0.01 in Rain Light Rain
2:37 PM 44.1 °F 40.1 °F 43.0 °F 96% 30.02 in 5.0 mi SW 6.9 mph - 0.02 in Rain Light Rain
2:53 PM 44.1 °F 40.8 °F 43.0 °F 96% 30.05 in 5.0 mi South 5.8 mph - 0.03 in Rain Light Rain
3:53 PM 44.1 °F 40.8 °F 43.0 °F 96% 30.05 in 10.0 mi South 5.8 mph - 0.00 in   Overcast
4:40 PM 44.1 °F 40.1 °F 43.0 °F 96% 30.02 in 6.0 mi SSW 6.9 mph - N/A   Overcast
4:53 PM 44.1 °F 40.8 °F 43.0 °F 96% 30.04 in 3.0 mi SSW 5.8 mph - N/A   Overcast
5:53 PM 44.1 °F 41.5 °F 44.1 °F 100% 30.04 in 3.0 mi South 4.6 mph - N/A   Overcast
6:29 PM 44.1 °F 41.5 °F 44.1 °F 100% 30.01 in 2.0 mi SSW 4.6 mph - N/A   Overcast
6:46 PM 44.1 °F 42.5 °F 44.1 °F 100% 30.02 in 1.5 mi SSW 3.5 mph - N/A   Overcast
6:53 PM 44.1 °F 41.5 °F 44.1 °F 100% 30.05 in 1.5 mi SSW 4.6 mph - N/A   Overcast
7:53 PM 44.1 °F 40.8 °F 44.1 °F 100% 30.06 in 1.5 mi SW 5.8 mph - N/A   Overcast
8:53 PM 44.1 °F 40.1 °F 44.1 °F 100% 30.05 in 1.2 mi SSW 6.9 mph - N/A   Overcast
9:53 PM 44.1 °F 41.5 °F 44.1 °F 100% 30.05 in 1.0 mi SW 4.6 mph - N/A   Overcast
10:22 PM 45.0 °F 40.6 °F 44.1 °F 97% 30.01 in 2.0 mi WSW 8.1 mph - N/A   Overcast
10:53 PM 45.0 °F 39.7 °F 44.1 °F 97% 30.05 in 2.5 mi West 10.4 mph - N/A   Overcast
11:53 PM 44.1 °F 40.1 °F 44.1 °F 100% 30.04 in 1.5 mi WSW 6.9 mph - N/A   Overcast